Monroe, NC

11:43 PM EDT on March 23, 2017 (GMT -0400)
Monroe

Weather History for KEQY - October, 2012

Change the Weather History Date:

Friday, October 19, 2012

  Actual Average (KCLT) Record (KCLT)
Temperature  
Mean Temperature 62 °F -  
Max Temperature 73 °F 69 °F 89 °F (2016)
Min Temperature 51 °F 46 °F 30 °F (2009)
Degree Days  
Heating Degree Days 3    
Growing Degree Days 12 (Base 50)    
Moisture  
Dew Point 49 °F    
Average Humidity 75    
Maximum Humidity 100    
Minimum Humidity 20    
Precipitation  
Precipitation 0.01 in - - ()
Sea Level Pressure  
Sea Level Pressure 29.79 in    
Wind  
Wind Speed 5 mph (SW)    
Max Wind Speed 16 mph    
Max Gust Speed 24 mph    
Visibility 6 miles    
Events Fog    
Averages and records for this station are not official NWS values.
T = Trace of Precipitation, MM = Missing Value Source: NWS Daily Summary

Daily Weather History Graph

Daily Weather History Graph

Search for Another Location

Airport or City:

Trip Planner

Search our weather history database for the weather conditions in past years. The results will help you decide how hot, cold, wet, or windy it might be!

Date:

Astronomy

Oct. 19, 2012 Rise Set
Actual Time 7:32 AM EDT 6:41 PM EDT
Civil Twilight 7:06 AM EDT 7:07 PM EDT
Nautical Twilight 6:37 AM EDT 7:37 PM EDT
Astronomical Twilight 6:07 AM EDT 8:06 PM EDT
Moon 12:05 PM EDT (10/19) 10:26 PM EDT (10/19)
Length of Visible Light 12h 01m
Length of Day
11h 09m
Waxing Crescent, 23% of the Moon is Illuminated
Oct 19
Waxing Crescent
Oct 21
First Quarter
Oct 29
Full
Nov 6
Last Quarter
Nov 13
New

Hourly Weather History & Observations

Time (EDT) Temp. Dew Point Humidity Pressure Visibility Wind Dir Wind Speed Gust Speed Precip Events Conditions
12:53 AM 61.0 °F 59.0 °F 93% 29.79 in 10.0 mi Calm Calm - N/A   Mostly Cloudy
1:53 AM 62.1 °F 61.0 °F 96% 29.78 in 9.0 mi Calm Calm - 0.01 in   Overcast
2:53 AM 62.1 °F 60.1 °F 93% 29.78 in 10.0 mi West 4.6 mph - N/A   Mostly Cloudy
3:53 AM 60.1 °F 59.0 °F 96% 29.76 in 4.0 mi Calm Calm - N/A   Partly Cloudy
4:10 AM 59.0 °F 59.0 °F 100% 29.76 in 1.8 mi Calm Calm - N/A   Clear
4:19 AM 59.0 °F 57.2 °F 94% 29.75 in 3.0 mi South 3.5 mph - N/A   Scattered Clouds
4:53 AM 59.0 °F 59.0 °F 100% 29.76 in 6.0 mi SSW 3.5 mph - N/A   Scattered Clouds
5:53 AM 60.1 °F 59.0 °F 96% 29.78 in 7.0 mi West 5.8 mph - N/A   Scattered Clouds
6:47 AM 57.2 °F 57.2 °F 100% 29.78 in 1.8 mi SW 4.6 mph - N/A   Clear
6:48 AM 57.9 °F 57.0 °F 97% 29.80 in 1.5 mi SW 4.6 mph - N/A   Clear
7:03 AM 57.2 °F 57.2 °F 100% 29.78 in 0.8 mi WSW 4.6 mph - N/A   Mist
7:24 AM 55.4 °F 55.4 °F 100% 29.78 in 0.5 mi SW 4.6 mph - N/A Fog Fog
7:53 AM 55.9 °F 55.9 °F 100% 29.80 in 0.8 mi SSW 3.5 mph - N/A   Mist
8:02 AM 55.4 °F 55.4 °F 100% 29.79 in 0.5 mi SSW 4.6 mph - N/A Fog Fog
8:10 AM 57.2 °F 55.4 °F 94% 29.79 in 0.2 mi SW 4.6 mph - N/A Fog Fog
8:34 AM 57.2 °F 57.2 °F 100% 29.79 in 1.0 mi WSW 5.8 mph - N/A   Overcast
8:39 AM 57.2 °F 57.2 °F 100% 29.79 in 0.5 mi WSW 9.2 mph - N/A Fog Fog
8:53 AM 57.9 °F 57.9 °F 100% 29.82 in 0.2 mi WSW 8.1 mph - N/A Fog Fog
9:48 AM 57.2 °F 57.2 °F 100% 29.80 in 1.0 mi SW 5.8 mph - N/A   Overcast
9:53 AM 59.0 °F 57.9 °F 96% 29.82 in 1.5 mi SW 5.8 mph - N/A   Overcast
10:02 AM 59.0 °F 59.0 °F 100% 29.81 in 2.5 mi SW 6.9 mph - N/A   Overcast
10:08 AM 59.0 °F 59.0 °F 100% 29.81 in 4.0 mi SSW 8.1 mph - N/A   Overcast
10:28 AM 60.8 °F 57.2 °F 88% 29.81 in 8.0 mi SW 6.9 mph - N/A   Scattered Clouds
10:53 AM 64.9 °F 52.0 °F 63% 29.83 in 10.0 mi WSW 12.7 mph - N/A   Clear
11:53 AM 69.1 °F 43.0 °F 39% 29.81 in 10.0 mi SSW 12.7 mph - N/A   Clear
12:53 PM 71.1 °F 35.1 °F 27% 29.80 in 10.0 mi WSW 15.0 mph 23.0 mph N/A   Clear
1:53 PM 72.0 °F 30.0 °F 21% 29.78 in 10.0 mi West 15.0 mph 24.2 mph N/A   Clear
2:53 PM 72.0 °F 30.0 °F 21% 29.76 in 10.0 mi WSW 16.1 mph 23.0 mph N/A   Clear
3:53 PM 73.9 °F 32.0 °F 21% 29.74 in 10.0 mi SW 15.0 mph 19.6 mph N/A   Clear
4:53 PM 72.0 °F 28.9 °F 20% 29.74 in 10.0 mi WSW 12.7 mph 23.0 mph N/A   Clear
5:53 PM 70.0 °F 28.9 °F 22% 29.74 in 10.0 mi WSW 16.1 mph 23.0 mph N/A   Clear
6:53 PM 63.0 °F 33.1 °F 33% 29.76 in 10.0 mi SW 5.8 mph - N/A   Clear
7:53 PM 60.1 °F 34.0 °F 38% 29.78 in 10.0 mi WSW 3.5 mph - N/A   Clear
8:53 PM 55.0 °F 35.1 °F 47% 29.79 in 10.0 mi Calm Calm - N/A   Clear
9:53 PM 54.0 °F 36.0 °F 51% 29.81 in 10.0 mi Calm Calm - N/A   Clear
10:53 PM 51.1 °F 39.9 °F 66% 29.82 in 10.0 mi SSW 3.5 mph - N/A   Clear
11:53 PM 55.0 °F 36.0 °F 49% 29.82 in 10.0 mi SW 4.6 mph - N/A   Clear